Canby, MN

1:30 PM CDT on April 20, 2018 (GMT -0500)
Canby

Weather History for KCNB - July, 2013

Change the Weather History Date:

Wednesday, July 24, 2013

  Actual Average (KMML) Record (KMML)
Temperature  
Mean Temperature 68 °F -  
Max Temperature 80 °F 82 °F 96 °F (1974)
Min Temperature 57 °F 61 °F 52 °F (1955)
Cooling Degree Days 4    
Growing Degree Days 18 (Base 50)    
Moisture  
Dew Point 57 °F    
Average Humidity 67    
Maximum Humidity 93    
Minimum Humidity 42    
Precipitation  
Precipitation 0.00 in - - ()
Sea Level Pressure  
Sea Level Pressure 30.04 in    
Wind  
Wind Speed 4 mph (WNW)    
Max Wind Speed 9 mph    
Max Gust Speed 9 mph    
Visibility 10 miles    
Events      
Averages and records for this station are not official NWS values.
T = Trace of Precipitation, MM = Missing Value Source: NWS Daily Summary

Daily Weather History Graph

Daily Weather History Graph

Search for Another Location

Airport or City:

Astronomy

Jul. 24, 2013 Rise Set
Actual Time 6:02 AM CDT 8:59 PM CDT
Civil Twilight 5:28 AM CDT 9:34 PM CDT
Nautical Twilight 4:44 AM CDT 10:17 PM CDT
Astronomical Twilight 3:51 AM CDT 11:09 PM CDT
Moon 9:56 PM CDT (7/24) 8:32 AM CDT (7/24)
Length of Visible Light 16h 05m
Length of Day
14h 56m
Waning Gibbous, 94% of the Moon is Illuminated
Jul 24
Waning Gibbous
Jul 29
Last Quarter
Aug 6
New
Aug 14
First Quarter
Aug 20
Full

Hourly Weather History & Observations

Time (CDT) Temp. Heat Index Dew Point Humidity Pressure Visibility Wind Dir Wind Speed Gust Speed Precip Events Conditions
12:14 AM 59.0 °F - 55.4 °F 88% 30.05 in 10.0 mi WSW 3.5 mph - N/A   Clear
12:34 AM 59.0 °F - 55.2 °F 87% 30.05 in 10.0 mi West 3.5 mph - N/A   Clear
12:54 AM 58.3 °F - 54.9 °F 88% 30.05 in 10.0 mi WSW 3.5 mph - N/A   Clear
1:14 AM 57.6 °F - 54.5 °F 90% 30.06 in 10.0 mi West 4.6 mph - N/A   Clear
1:34 AM 57.7 °F - 54.7 °F 90% 30.05 in 10.0 mi WSW 3.5 mph - N/A   Clear
1:54 AM 57.6 °F - 55.2 °F 92% 30.05 in 10.0 mi West 3.5 mph - N/A   Clear
2:14 AM 57.7 °F - 54.7 °F 90% 30.05 in 10.0 mi Calm Calm - N/A   Clear
2:34 AM 57.2 °F - 54.5 °F 91% 30.05 in 10.0 mi West 3.5 mph - N/A   Scattered Clouds
2:54 AM 57.4 °F - 54.9 °F 91% 30.05 in 10.0 mi West 4.6 mph - N/A   Mostly Cloudy
3:14 AM 58.5 °F - 55.4 °F 90% 30.05 in 10.0 mi West 3.5 mph - N/A   Mostly Cloudy
3:34 AM 58.1 °F - 55.0 °F 90% 30.06 in 10.0 mi West 3.5 mph - N/A   Scattered Clouds
3:54 AM 58.3 °F - 55.4 °F 90% 30.06 in 10.0 mi WSW 4.6 mph - N/A   Mostly Cloudy
4:14 AM 58.5 °F - 55.4 °F 90% 30.06 in 10.0 mi West 4.6 mph - N/A   Mostly Cloudy
4:34 AM 57.9 °F - 55.0 °F 90% 30.05 in 10.0 mi West 3.5 mph - N/A   Scattered Clouds
4:54 AM 58.1 °F - 55.4 °F 91% 30.06 in 10.0 mi West 4.6 mph - N/A   Mostly Cloudy
5:14 AM 57.2 °F - 54.7 °F 91% 30.07 in 10.0 mi West 3.5 mph - N/A   Scattered Clouds
5:34 AM 57.4 °F - 54.9 °F 91% 30.07 in 10.0 mi West 3.5 mph - N/A   Mostly Cloudy
5:55 AM 58.1 °F - 55.6 °F 91% 30.07 in 10.0 mi West 4.6 mph - N/A   Overcast
6:15 AM 58.5 °F - 56.3 °F 93% 30.08 in 10.0 mi West 4.6 mph - N/A   Overcast
6:34 AM 59.0 °F - 56.5 °F 91% 30.09 in 10.0 mi Calm Calm - N/A   Overcast
6:54 AM 59.4 °F - 56.8 °F 91% 30.09 in 10.0 mi West 3.5 mph - N/A   Overcast
7:14 AM 61.0 °F - 57.0 °F 87% 30.09 in 10.0 mi Calm Calm - N/A   Overcast
7:34 AM 62.8 °F - 57.2 °F 82% 30.09 in 10.0 mi WNW 4.6 mph - N/A   Scattered Clouds
7:54 AM 63.7 °F - 57.2 °F 79% 30.10 in 10.0 mi WNW 4.6 mph - N/A   Clear
8:14 AM 65.5 °F - 57.2 °F 75% 30.10 in 10.0 mi WNW 5.8 mph - N/A   Clear
8:34 AM 66.9 °F - 57.4 °F 71% 30.10 in 10.0 mi WNW 5.8 mph - N/A   Clear
8:54 AM 68.2 °F - 57.4 °F 68% 30.10 in 10.0 mi NW 5.8 mph - N/A   Clear
9:14 AM 69.3 °F - 56.7 °F 64% 30.10 in 10.0 mi WNW 4.6 mph - N/A   Clear
9:34 AM 70.0 °F - 56.8 °F 63% 30.10 in 10.0 mi NW 4.6 mph - N/A   Clear
9:54 AM 71.1 °F - 56.1 °F 59% 30.09 in 10.0 mi NW 5.8 mph - N/A   Clear
10:14 AM 72.3 °F - 55.9 °F 56% 30.09 in 10.0 mi NW 4.6 mph - N/A   Clear
10:34 AM 72.9 °F - 55.4 °F 54% 30.09 in 10.0 mi WNW 4.6 mph - N/A   Clear
10:55 AM 73.6 °F - 54.9 °F 52% 30.09 in 10.0 mi NW 6.9 mph - N/A   Scattered Clouds
11:14 AM 74.1 °F - 55.0 °F 51% 30.09 in 10.0 mi North 4.6 mph - N/A   Scattered Clouds
11:34 AM 75.0 °F - 55.0 °F 50% 30.09 in 10.0 mi North 5.8 mph - N/A   Clear
11:55 AM 75.6 °F - 54.5 °F 48% 30.09 in 10.0 mi North 5.8 mph - N/A   Clear
12:14 PM 74.3 °F - 55.2 °F 51% 30.09 in 10.0 mi NW 5.8 mph - N/A   Scattered Clouds
12:34 PM 75.6 °F - 54.3 °F 48% 30.09 in 10.0 mi NNW 3.5 mph - N/A   Scattered Clouds
12:54 PM 76.8 °F - 55.2 °F 47% 30.08 in 10.0 mi NNW 5.8 mph - N/A   Clear
1:14 PM 75.9 °F - 55.8 °F 49% 30.07 in 10.0 mi WNW 3.5 mph - N/A   Mostly Cloudy
1:34 PM 77.2 °F - 56.5 °F 49% 30.06 in 10.0 mi Calm Calm - N/A   Scattered Clouds
1:55 PM 78.1 °F - 54.3 °F 44% 30.06 in 10.0 mi NNW 6.9 mph - N/A   Scattered Clouds
2:15 PM 78.3 °F - 55.0 °F 45% 30.05 in 10.0 mi West 4.6 mph - N/A   Scattered Clouds
2:34 PM 78.8 °F - 54.5 °F 43% 30.05 in 10.0 mi NNW 3.5 mph - N/A   Scattered Clouds
2:54 PM 79.5 °F - 54.9 °F 42% 30.05 in 10.0 mi West 5.8 mph 9.2 mph N/A   Scattered Clouds
3:15 PM 79.7 °F - 54.9 °F 42% 30.04 in 10.0 mi Calm Calm - N/A   Scattered Clouds
3:34 PM 80.6 °F 80.5 °F 55.8 °F 42% 30.04 in 10.0 mi NNW 5.8 mph - N/A   Scattered Clouds
3:59 PM 79.2 °F - 55.6 °F 44% 30.03 in 10.0 mi WNW 5.8 mph - N/A   Mostly Cloudy
4:14 PM 79.0 °F - 56.3 °F 46% 30.03 in 10.0 mi WNW 5.8 mph - N/A   Scattered Clouds
4:34 PM 80.1 °F 80.3 °F 56.5 °F 44% 30.02 in 10.0 mi Calm Calm - N/A   Mostly Cloudy
4:54 PM 78.4 °F - 56.3 °F 46% 30.01 in 10.0 mi Calm Calm - N/A   Mostly Cloudy
5:14 PM 79.9 °F - 55.6 °F 43% 30.01 in 10.0 mi West 6.9 mph - N/A   Mostly Cloudy
5:34 PM 78.8 °F - 55.9 °F 45% 30.00 in 10.0 mi West 6.9 mph - N/A   Mostly Cloudy
5:54 PM 80.4 °F 80.5 °F 56.3 °F 43% 30.00 in 10.0 mi NW 5.8 mph - N/A   Scattered Clouds
6:15 PM 79.3 °F - 57.4 °F 47% 29.99 in 10.0 mi NW 4.6 mph - N/A   Scattered Clouds
6:35 PM 79.5 °F - 57.6 °F 47% 29.99 in 10.0 mi NW 4.6 mph - N/A   Scattered Clouds
6:54 PM 79.7 °F - 57.9 °F 47% 29.99 in 10.0 mi WNW 5.8 mph - N/A   Scattered Clouds
7:14 PM 79.2 °F - 56.8 °F 46% 29.99 in 10.0 mi West 4.6 mph - N/A   Clear
7:34 PM 78.3 °F - 58.3 °F 50% 29.98 in 10.0 mi Calm Calm - N/A   Clear
7:55 PM 77.2 °F - 59.9 °F 55% 29.98 in 10.0 mi Calm Calm - N/A   Clear
8:14 PM 76.3 °F - 60.6 °F 58% 29.98 in 10.0 mi Calm Calm - N/A   Clear
8:39 PM 74.5 °F - 61.9 °F 65% 29.98 in 10.0 mi Calm Calm - N/A   Clear
8:55 PM 73.4 °F - 61.7 °F 67% 29.98 in 10.0 mi Calm Calm - N/A   Clear
9:14 PM 72.5 °F - 60.8 °F 67% 29.98 in 10.0 mi Calm Calm - N/A   Clear
9:34 PM 70.7 °F - 62.2 °F 75% 29.98 in 10.0 mi Calm Calm - N/A   Clear
9:55 PM 70.3 °F - 62.2 °F 75% 29.99 in 10.0 mi SSW 3.5 mph - N/A   Clear
10:15 PM 70.0 °F - 61.9 °F 75% 29.99 in 10.0 mi SW 4.6 mph - N/A   Clear
10:34 PM 69.8 °F - 61.7 °F 75% 30.00 in 10.0 mi SSW 3.5 mph - N/A   Scattered Clouds
10:54 PM 69.8 °F - 61.0 °F 73% 30.00 in 10.0 mi SSW 5.8 mph - N/A   Mostly Cloudy
11:15 PM 69.6 °F - 60.4 °F 73% 29.99 in 10.0 mi SW 6.9 mph - N/A   Scattered Clouds
11:34 PM 69.4 °F - 60.3 °F 73% 29.98 in 10.0 mi SW 6.9 mph - N/A   Scattered Clouds
11:54 PM 69.8 °F - 60.3 °F 72% 29.98 in 10.0 mi SW 9.2 mph - N/A   Scattered Clouds